SJ-29B

导读 | 豆包AI

SJ-29B(实践二十九号B星)是中国于2025年12月30日在文昌航天发射场,由长征七号改运载火箭发射入轨的卫星,与实践二十九号A星组成双星任务。该卫星由中国科学院微小卫星创新研究院抓总研制,主要用于开展空间目标探测新技术验证试验,助力中国航天前沿技术探索与空间探测能力提升。

Basic Information
目录编号:
67403
目录名称:
SJ-29B
国际标识:
2025-315C
轨道中心:
EARTH
卫星名称:
SJ-29B
卫星全名:
SJ-29B
卫星状态:
在轨 (已飞行121 天)
发射日期:
2025-12-30 UTC
国别 :
中国 (CN)
星等 :
--
Orbit Information
数据来源 国际轨道数据 AOE轨道数据
星历时间 2026-04-30T06:20:44+0800
15小时前
查看轨道信息
2026-04-30T04:00:00+0800
18小时前
查看轨道信息
半长轴 42163.831km 42163.915km
偏心率 0.000679 0.0006801
轨道倾角 3.276° 3.275°
近地点辐角 340.259° 339.995°
升交点赤经 96.280° 96.287°
平近点角 190.128° 155.104°
近地点 35757.064km 35757.102km
远地点 35814.324km 35814.454km
周期 1436.051分钟 1436.055分钟
每日圈数 1.00275 1.002747
Detailed Information
使用方式:
暂无
2D Orbit Map
3D Orbit Map
Orbit Altitude Analysis Chart
Orbit Inclination Analysis Chart
Orbit Comprehensive Analysis Chart
View Comprehensive Chart